Wind_Speed
44 45 46 46 47 48 49 49 49 49 50 51 52 52 53 53 53 53 53 54 53 52 52 53 54 54 54 55 54 54 54 54 53 53 52 51 51 51 51 51 51 52 51
43 44 44 45 47 48 49 49 50 50 49 50 51 52 52 52 53 53 53 54 54 54 53 53 53 54 55 55 55 54 54 53 53 51 50 50 50 50 50 50 50 51 50
41 42 43 44 46 47 49 49 50 50 51 50 50 51 51 52 53 53 54 54 54 54 53 52 52 53 54 54 54 54 53 53 52 50 49 49 49 50 50 49 49 49 49
41 41 42 43 44 46 47 48 49 50 51 51 52 51 51 52 52 52 52 52 53 53 53 52 52 53 53 53 53 53 52 52 51 50 49 49 49 50 50 49 48 48 48
40 41 42 43 44 44 46 47 48 49 50 50 50 51 51 51 51 50 50 50 51 52 52 52 52 51 51 51 50 50 51 51 52 51 50 49 49 49 50 49 48 49 49
39 40 41 42 43 44 44 46 47 47 48 48 48 49 49 50 50 50 50 49 49 49 50 50 51 51 51 50 50 50 50 50 50 51 50 50 49 49 49 50 50 50 49
38 39 40 41 42 43 43 43 44 46 47 47 48 47 47 48 49 49 50 50 50 49 49 49 49 50 50 49 49 50 50 50 50 50 48 48 49 49 50 50 50 50 48
37 38 38 39 40 41 42 43 43 44 45 45 46 46 46 46 47 47 48 48 48 49 49 49 48 48 48 48 48 48 48 49 49 49 48 48 49 49 48 48 48 48 49
37 37 37 38 39 39 40 41 42 42 43 43 45 45 45 45 45 46 46 46 46 46 47 47 46 46 45 46 46 47 47 47 48 48 48 49 49 48 47 46 46 46 47
36 36 37 37 38 38 39 39 40 41 41 41 42 42 43 43 44 44 44 45 45 45 45 45 44 43 43 44 45 45 45 46 46 47 47 47 47 47 46 45 46 46 46
33 35 36 36 36 37 37 38 38 38 38 39 39 39 39 40 41 42 42 43 42 42 41 41 41 42 42 42 43 43 43 43 44 45 45 45 46 46 47 46 45 45 45
31 32 33 34 35 36 36 36 36 37 37 37 36 36 37 37 38 39 39 40 40 40 39 39 40 40 41 41 41 41 41 42 42 42 42 43 44 45 45 45 45 45 45
29 30 31 31 33 33 34 34 35 35 35 35 35 35 35 35 35 36 36 37 37 38 38 38 39 39 39 39 39 40 40 40 40 40 40 41 41 42 42 42 42 43 42
29 29 30 30 31 32 33 33 33 34 34 34 34 34 33 33 33 34 34 35 35 36 36 36 36 36 37 37 38 38 39 39 38 38 38 39 39 39 39 40 41 41 40
28 29 29 29 29 30 30 30 31 31 31 32 32 32 33 33 33 33 33 33 33 33 34 34 34 35 35 35 35 36 36 36 36 35 36 37 37 37 38 38 37 37 37
28 29 29 30 29 29 29 29 29 29 30 30 30 31 31 31 31 31 31 32 32 32 32 32 32 32 33 32 32 33 34 34 33 33 34 34 34 34 34 34 33 34 34
28 28 29 29 28 28 29 29 29 29 29 29 30 30 30 29 30 30 30 30 31 31 31 30 30 30 30 30 30 31 31 31 32 32 32 32 32 32 31 31 31 30 30
27 28 28 28 27 28 28 27 27 27 27 27 28 28 28 28 28 28 29 29 29 28 28 28 27 28 28 29 28 28 29 29 29 29 29 29 29 29 28 28 28 28 28
27 27 27 26 26 26 26 25 25 25 25 25 25 26 26 26 27 27 27 27 26 26 26 26 26 26 26 27 27 27 27 27 27 27 27 26 26 26 26 26 27 26 26
25 25 25 25 25 25 25 24 23 23 23 24 23 24 24 25 25 25 25 25 25 24 24 24 24 24 24 25 25 25 25 26 25 25 25 25 24 23 23 23 23 23 23
24 24 24 24 24 24 24 23 23 22 22 22 22 22 21 22 22 23 23 23 23 23 23 22 22 22 22 23 23 23 23 23 23 22 22 22 22 20 20 20 21 20 21
23 23 24 23 23 23 23 22 22 22 21 21 21 21 20 20 21 20 20 21 21 21 22 21 21 20 20 20 20 20 21 21 20 20 20 20 20 19 19 19 19 19 19
22 22 22 21 21 21 21 21 21 21 21 21 20 21 20 20 20 19 19 19 19 19 20 19 19 19 19 18 19 19 19 19 19 19 18 18 18 18 18 18 18 18 17
21 21 20 19 19 19 19 19 19 19 19 19 19 19 19 19 19 18 18 18 18 18 18 18 18 18 19 19 19 19 19 19 18 18 18 17 17 17 17 17 17 17 16
20 20 19 19 19 18 18 17 17 17 17 17 17 17 17 18 17 17 17 17 17 17 17 18 18 18 18 18 18 18 18 18 18 17 17 17 17 17 17 16 16 15 15
18 18 18 17 17 17 16 16 15 15 15 15 15 15 15 15 15 15 15 16 16 17 17 18 18 18 18 18 18 18 18 18 17 16 16 16 16 16 16 15 15 15 14
Wind_Direction
259 260 260 260 259 259 259 260 260 261 262 261 262 262 263 264 264 264 263 263 263 262 262 262 262 263 264 264 264 264 265 265 265 264 265 264 264 265 265 266 266 266 266
261 261 261 261 260 260 260 261 260 261 262 263 263 263 264 264 264 264 264 263 263 262 262 263 262 263 263 263 263 263 263 264 264 264 264 264 264 265 266 266 266 266 266
262 262 262 262 261 261 262 262 261 262 263 263 264 264 264 264 264 264 264 263 263 263 263 263 263 263 263 263 263 262 262 261 262 263 263 263 264 265 266 266 266 265 266
263 264 264 264 263 263 263 263 262 262 263 263 263 264 264 264 265 264 264 263 263 263 263 263 264 264 263 262 261 261 260 260 260 261 262 262 263 265 265 265 265 266 267
263 264 265 265 266 266 265 264 264 264 264 264 264 264 264 264 264 264 263 263 263 263 263 263 264 263 262 261 261 260 260 260 260 261 262 263 263 263 265 265 265 265 267
265 265 266 267 267 267 267 266 266 266 266 265 265 265 264 264 264 263 263 263 263 263 263 263 264 263 262 261 261 260 260 260 261 262 262 262 263 263 263 264 265 266 266
267 267 267 267 268 268 269 269 268 267 266 265 265 265 265 265 264 265 265 265 265 264 265 264 264 263 262 261 261 261 261 260 262 263 263 263 263 264 264 265 265 266 268
269 270 269 269 269 269 269 270 270 269 268 266 266 266 265 264 263 264 265 265 265 265 264 264 263 263 263 262 262 262 262 262 262 264 265 265 264 264 264 264 265 266 267
272 272 271 271 271 271 271 270 270 269 269 268 267 266 265 263 263 262 262 263 264 264 264 263 263 263 263 263 262 262 262 262 263 264 264 264 263 264 263 264 265 265 266
273 273 273 273 273 273 272 271 270 269 269 269 269 267 265 263 263 263 263 263 264 265 265 264 263 263 262 263 263 263 263 263 262 263 263 263 262 262 262 263 265 265 266
274 274 274 274 274 273 274 273 272 271 270 269 269 267 266 264 263 263 263 264 264 265 265 264 264 263 263 263 264 264 264 263 262 261 261 262 262 262 263 264 266 266 266
278 277 276 276 275 275 275 274 274 273 272 272 271 269 267 265 264 264 264 264 264 264 264 263 262 262 262 262 263 263 263 263 262 261 261 262 262 262 264 264 265 265 266
281 280 279 279 277 277 276 275 275 274 273 273 272 270 268 267 266 265 265 265 264 263 263 263 262 262 262 262 262 261 261 261 262 261 261 262 263 263 264 264 265 265 264
282 283 282 281 281 280 278 277 276 275 274 273 272 270 269 267 267 267 267 267 266 265 265 264 263 263 263 262 261 260 260 262 262 262 262 263 263 264 264 265 266 265 265
283 284 284 284 284 282 280 279 278 276 275 274 272 270 268 268 267 267 267 267 266 266 265 264 263 262 262 262 261 260 260 261 261 261 262 263 263 263 264 264 264 263 263
284 284 284 285 285 283 282 280 280 278 276 274 272 271 269 268 267 266 266 266 267 266 264 263 263 262 261 261 262 260 259 259 260 261 262 262 262 263 263 263 261 261 262
285 286 286 286 285 283 283 282 280 279 276 273 271 270 269 268 267 267 267 267 267 266 264 263 262 261 260 260 261 260 259 259 260 260 261 261 261 261 261 261 261 263 263
286 288 288 287 285 284 283 282 281 279 277 274 273 271 269 268 268 267 266 266 265 264 263 262 261 260 259 259 260 260 258 258 259 259 259 260 259 258 258 260 262 264 264
287 288 288 288 286 285 284 283 282 280 278 276 273 271 269 269 268 267 266 265 264 263 261 261 261 260 259 258 259 259 257 256 257 257 257 258 258 258 257 259 261 263 264
290 290 289 289 287 285 284 284 282 280 278 276 273 272 270 269 268 266 265 264 264 262 261 259 259 259 258 257 258 258 256 254 256 256 255 255 257 259 256 255 259 261 263
292 292 291 289 287 286 285 284 281 280 278 276 274 273 272 270 269 266 264 263 261 259 257 258 259 259 258 257 258 257 254 252 253 255 255 256 256 255 255 256 258 259 261
293 294 293 291 287 287 287 284 281 279 277 276 275 274 274 273 271 268 265 262 259 256 255 257 257 257 256 256 255 254 252 251 251 252 253 254 252 252 254 256 258 258 260
293 295 295 293 291 289 287 284 282 280 278 276 274 273 273 272 272 270 266 263 261 257 255 255 254 254 253 253 253 253 251 250 250 251 252 253 253 253 255 255 257 258 259
293 294 295 295 294 293 290 286 284 281 278 276 274 273 271 270 270 267 264 262 259 257 256 254 254 254 253 252 253 252 251 249 249 251 253 253 253 252 252 254 257 258 258
295 296 295 296 296 295 293 289 286 282 279 277 276 275 272 270 267 265 262 258 256 254 253 253 253 253 251 251 251 249 247 245 246 248 249 251 252 251 251 253 255 257 259
296 297 298 298 297 296 295 292 287 284 282 282 279 275 272 269 266 264 260 257 255 254 254 254 252 251 250 250 248 245 242 242 242 244 247 249 250 249 250 252 253 256 259
Height
5629 5629 5630 5630 5631 5632 5633 5634 5635 5636 5637 5638 5639 5640 5641 5642 5642 5643 5644 5645 5646 5646 5647 5648 5649 5650 5650 5651 5652 5653 5654 5654 5656 5659 5659 5659 5659 5660 5661 5661 5661 5661 5661
5616 5617 5617 5618 5618 5619 5620 5621 5622 5623 5623 5624 5624 5625 5626 5627 5628 5629 5630 5630 5631 5632 5633 5633 5634 5635 5636 5636 5637 5638 5639 5640 5642 5644 5645 5646 5646 5646 5647 5647 5647 5647 5648
5604 5604 5605 5605 5605 5606 5607 5607 5608 5609 5609 5609 5610 5611 5612 5613 5614 5614 5615 5615 5616 5617 5618 5619 5619 5620 5620 5621 5622 5623 5624 5626 5627 5629 5631 5632 5633 5633 5633 5634 5634 5634 5634
5592 5592 5592 5592 5592 5593 5593 5594 5594 5595 5595 5595 5596 5596 5597 5598 5599 5599 5600 5600 5601 5602 5603 5603 5604 5605 5605 5606 5607 5608 5610 5611 5613 5615 5617 5618 5619 5619 5620 5620 5621 5621 5621
5581 5581 5581 5580 5580 5580 5580 5580 5580 5581 5581 5581 5582 5582 5583 5584 5584 5585 5585 5586 5586 5587 5588 5588 5589 5589 5590 5591 5593 5594 5596 5597 5599 5601 5603 5604 5605 5606 5606 5606 5607 5607 5607
5570 5570 5569 5569 5568 5568 5568 5567 5567 5567 5567 5567 5568 5568 5569 5569 5570 5570 5571 5572 5572 5573 5573 5574 5574 5575 5576 5578 5579 5580 5582 5584 5585 5587 5589 5590 5592 5592 5592 5593 5593 5593 5594
5559 5558 5558 5557 5557 5556 5555 5555 5554 5554 5554 5554 5554 5555 5555 5555 5556 5556 5557 5558 5558 5559 5560 5560 5561 5562 5563 5564 5566 5567 5568 5570 5572 5574 5575 5577 5578 5579 5579 5579 5579 5579 5580
5548 5547 5546 5545 5545 5544 5543 5543 5542 5541 5541 5541 5541 5541 5541 5541 5542 5542 5543 5543 5544 5545 5546 5547 5548 5549 5549 5551 5552 5554 5555 5557 5558 5560 5562 5563 5563 5564 5564 5565 5565 5565 5566
5537 5536 5535 5534 5533 5532 5531 5530 5529 5528 5528 5527 5527 5527 5527 5528 5528 5528 5529 5530 5531 5532 5533 5533 5534 5536 5537 5538 5539 5541 5543 5544 5544 5546 5547 5548 5549 5550 5550 5551 5551 5552 5552
5526 5525 5523 5522 5521 5520 5519 5518 5517 5516 5515 5515 5514 5514 5514 5514 5515 5515 5516 5517 5518 5519 5520 5521 5522 5523 5523 5524 5526 5528 5529 5531 5531 5532 5533 5534 5535 5536 5537 5537 5538 5538 5538
5516 5514 5513 5511 5510 5508 5507 5506 5505 5504 5503 5502 5502 5502 5501 5502 5502 5503 5503 5504 5505 5507 5508 5508 5509 5510 5511 5512 5513 5515 5516 5517 5518 5519 5520 5521 5522 5523 5524 5524 5525 5525 5525
5506 5504 5502 5500 5499 5497 5496 5495 5494 5493 5492 5491 5490 5490 5490 5490 5490 5490 5491 5492 5493 5495 5496 5497 5498 5498 5499 5500 5501 5502 5503 5504 5505 5506 5508 5509 5510 5511 5511 5512 5512 5512 5512
5497 5495 5493 5490 5488 5487 5485 5484 5483 5482 5481 5480 5480 5480 5479 5479 5479 5479 5480 5481 5482 5483 5484 5485 5486 5486 5487 5488 5489 5490 5491 5492 5493 5495 5496 5497 5498 5499 5499 5499 5499 5499 5500
5488 5486 5483 5481 5479 5477 5475 5474 5473 5471 5470 5470 5469 5469 5469 5469 5469 5469 5470 5470 5471 5472 5473 5474 5474 5475 5475 5476 5477 5478 5479 5481 5482 5483 5484 5485 5486 5487 5487 5487 5488 5488 5488
5479 5477 5474 5472 5470 5468 5466 5464 5463 5461 5460 5460 5459 5459 5459 5460 5460 5460 5460 5460 5461 5462 5462 5463 5463 5464 5465 5465 5466 5467 5468 5469 5471 5472 5473 5474 5475 5475 5476 5476 5476 5477 5477
5470 5468 5465 5463 5461 5459 5457 5455 5453 5452 5451 5450 5449 5449 5449 5449 5449 5450 5450 5450 5451 5451 5452 5453 5453 5454 5455 5455 5456 5457 5458 5459 5460 5461 5462 5463 5464 5465 5465 5465 5466 5466 5467
5461 5459 5456 5454 5452 5449 5448 5446 5444 5443 5441 5440 5439 5439 5439 5439 5439 5440 5440 5441 5441 5441 5442 5443 5444 5445 5445 5446 5447 5447 5448 5449 5451 5452 5453 5453 5454 5455 5455 5456 5456 5456 5457
5452 5450 5447 5445 5443 5441 5439 5437 5435 5434 5432 5431 5430 5430 5429 5430 5430 5430 5431 5431 5431 5432 5433 5434 5435 5436 5436 5437 5438 5439 5439 5440 5441 5442 5443 5444 5445 5445 5446 5447 5447 5448 5448
5444 5441 5439 5436 5434 5432 5430 5429 5427 5425 5424 5423 5422 5421 5421 5421 5421 5421 5421 5422 5423 5424 5425 5426 5427 5427 5428 5429 5430 5430 5431 5432 5433 5434 5435 5436 5437 5437 5438 5439 5439 5440 5439
5435 5433 5430 5428 5426 5424 5422 5421 5419 5418 5416 5415 5414 5414 5413 5413 5412 5413 5413 5414 5415 5416 5417 5418 5418 5419 5420 5421 5422 5422 5423 5424 5425 5426 5428 5429 5429 5430 5430 5431 5432 5432 5432
5428 5425 5423 5420 5418 5416 5415 5413 5412 5411 5409 5408 5407 5406 5406 5405 5405 5405 5405 5405 5406 5408 5409 5410 5411 5411 5412 5413 5414 5415 5416 5417 5419 5420 5421 5421 5422 5423 5424 5425 5425 5425 5426
5421 5419 5416 5413 5411 5409 5407 5406 5404 5403 5402 5401 5400 5400 5399 5398 5398 5398 5398 5398 5399 5400 5402 5403 5404 5405 5406 5407 5407 5409 5410 5411 5412 5413 5414 5415 5416 5417 5418 5419 5419 5419 5419
5415 5412 5409 5407 5404 5402 5400 5399 5398 5397 5396 5395 5394 5393 5392 5392 5392 5391 5392 5392 5393 5394 5395 5396 5397 5398 5399 5400 5401 5403 5404 5405 5407 5408 5408 5410 5411 5412 5412 5413 5413 5414 5414
5409 5406 5404 5401 5399 5396 5394 5393 5391 5390 5389 5388 5387 5387 5386 5386 5385 5385 5386 5386 5387 5388 5389 5390 5391 5392 5393 5394 5395 5397 5398 5400 5401 5402 5403 5404 5405 5406 5407 5408 5408 5408 5409
5403 5400 5398 5396 5393 5391 5389 5387 5386 5384 5383 5382 5382 5381 5380 5380 5379 5379 5380 5380 5381 5382 5382 5383 5385 5386 5387 5388 5389 5391 5392 5394 5395 5397 5398 5399 5400 5401 5402 5402 5403 5403 5404
5397 5395 5393 5390 5388 5386 5384 5383 5381 5380 5378 5377 5376 5376 5375 5375 5374 5374 5374 5374 5375 5376 5377 5377 5378 5379 5381 5382 5383 5385 5387 5388 5390 5391 5393 5394 5395 5396 5397 5397 5398 5399 5399